Regional Weather Roundup
Issued by NWS

Home | Current Version | Previous Version | Text Only | Print | Product List | Glossary Off
Versions: 1 2 3 4 5 6 7 8 9 10 11 12 13 14 15 16 17 18 19 20 21 22 23 24 25 26 27 28 29 30 31 32 33 34 35 36 37 38 39 40 41 42 43 44 45 46 47 48 49 50

529
ASUS45 KABQ 261901
RWRNM
NEW MEXICO REGIONAL WEATHER ROUNDUP
NATIONAL WEATHER SERVICE ALBUQUERQUE NM
100 PM MDT SUN MAR 26 2017

NOTE: "FAIR" MEANS FEW OR NO CLOUDS BELOW 12,000 FEET AGL WITH NO
       SIGNIFICANT WEATHER OR OBSTRUCTIONS TO VISION.

      THIS PRODUCT IS RELEASED AS TWO VERSIONS.  ONE VERSION NEAR
      THE TOP OF THE HOUR CONTAINING PRELIMINARY DATA FROM ALBUQUERQUE
      AND OTHER STATIONS.  A FINAL VERSION WITH ADDITIONAL DATA IS
      ISSUED ABOUT 10 MINUTES AFTER THE HOUR.

NMZ501-503-504-510>518-262000-
NORTHWEST PLATEAU/NORTHCENTRAL MOUNTAINS

CITY           SKY/WX    TMP DP  RH WIND       PRES   REMARKS
FARMINGTON     FAIR      53  36  52 W15G24    29.98R
LOS ALAMOS     CLOUDY    52  27  37 E6        29.96R
SANTA FE       FAIR      60  30  32 NW10G18   29.92S
TAOS             N/A     50  32  50 W12       29.93R
ANGEL FIRE     PTSUNNY   42  32  69 W20G25    29.95R

$$
NMZ402-403-502-505>509-262000-
WESTCENTRAL MOUNTAINS/SOUTHWEST MOUNTAINS

CITY           SKY/WX    TMP DP  RH WIND       PRES   REMARKS
GALLUP         FAIR      49  35  58 SW7       30.04F
GRANTS         FAIR      52  29  41 W15       30.02F
SILVER CITY    FAIR      61  24  23 W20G25    30.03F

$$
NMZ407-409-411-412-262000-
SOUTHERN DESERTS

CITY           SKY/WX    TMP DP  RH WIND       PRES   REMARKS
DEMING         FAIR      68  24  19 W23G31    29.99S
LAS CRUCES     FAIR      68  21  16 W21G32    29.98F
HOLLOMAN AFB   FAIR      67  19  15 W9G17     29.98F
ALAMOGORDO     FAIR      66  18  15 NW14G22   29.95F
T OR C         FAIR      68   9  10 NW10G20   29.94F

$$
NMZ519>523-262000-
CENTRAL VALLEYS/CENTRAL HIGHLANDS

CITY           SKY/WX    TMP DP  RH WIND       PRES   REMARKS
ALBUQUERQUE    FAIR      60  27  28 NW14G22   29.96F
DOUBLE EAGLE   PTSUNNY   57  28  33 W12       29.98S
MORIARTY ARPT  FAIR      60  29  30 W16G25    29.94S
CLINES CORNERS FAIR      53  27  36 NW26G45   29.94R
BELEN          FAIR      60  26  27 W16G23    29.96F
SOCORRO        FAIR      66  15  14 NW8G20    29.94F

$$
NMZ524>526-539-540-262000-
SOUTHCENTRAL MOUNTAINS

CITY           SKY/WX    TMP DP  RH WIND       PRES   REMARKS
RUIDOSO        NOT AVBL

$$
NMZ527>531-262000-
NORTHEAST HIGHLANDS/NORTHEAST PLAINS

CITY           SKY/WX    TMP DP  RH WIND       PRES   REMARKS
LAS VEGAS      FAIR      57  22  25 N23G35    29.88S
RATON          FAIR      49  37  63 N18G31    29.86S
CLAYTON        FAIR      60  36  40 N25G36    29.77R

$$
NMZ532>537-262000-
EASTCENTRAL PLAINS

CITY           SKY/WX    TMP DP  RH WIND       PRES   REMARKS
TUCUMCARI      FAIR      73  27  18 NW21G31   29.74S
CANNON AFB     FAIR      69  27  20 W26G37    29.79S
CLOVIS AIRPORT FAIR      70  28  21 W29G40    29.79S

$$
NMZ028-029-538-262000-
SOUTHEAST PLAINS

CITY           SKY/WX    TMP DP  RH WIND       PRES   REMARKS
ROSWELL        FAIR      74  16  11 W9G20       N/A
ARTESIA        FAIR      75  18  11 W20G26    29.84F
CARLSBAD       FAIR      77  20  12 W29G38    29.84F
HOBBS          SUNNY     73  19  13 SW22G38   29.86F


$$




USA.gov is the U.S. government's official web portal to all federal, state and local government web resources and services.